Location: Augustenthal
(51.7167°N, 10.2833°E)
Time: 08:33:38
(UTC+00:00)

Cosmos 1707 Rocket - Pass Details

Date: 18 May 2021
Orbit: 605 x 631 km, 82.5° (Epoch: 15 June)

Event Time Altitude Azimuth Distance (km) Brightness Sun altitude
Exits shadow 21:14:44 10° 199° (SSW) 1,960 5.7 -13.8°
Maximum altitude 21:19:03 68° 282° (WNW) 677 3.9 -14.1°
Drops below altitude 10° 21:23:30 10° 6° (N) 2,014 7.1 -14.5°
Sets 21:25:47 0° 9° (N) 2,930 8.0 -14.6°
